Regional Weather Roundup
Issued by NWS

Home | Current Version | Previous Version | Graphics & Text | Print | Product List | Glossary Off
Versions: 1 2 3 4 5 6 7 8 9 10 11 12 13 14 15 16 17 18 19 20 21 22 23 24 25 26 27 28 29 30 31 32 33 34 35 36 37 38 39 40 41 42 43 44 45 46 47 48 49 50

000
ASUS43 KDMX 091607
RWRIA

WEATHER ROUNDUP FOR IOWA
NATIONAL WEATHER SERVICE DES MOINES IA
1100 AM CDT WED JUL 09 2014

NOTE: "FAIR" INDICATES FEW OR NO CLOUDS BELOW 12,000 FEET WITH NO
SIGNIFICANT WEATHER AND/OR OBSTRUCTIONS TO VISIBILITY.

* - THESE STATIONS ARE NOT NWS STATIONS...THUS NOT UNDER NWS
QUALITY CONTROL.  THEY ALSO DO NOT REPORT WEATHER SUCH
AS PRECIPITATION OR FOG.

IAZ001>003-012>014-020>022-031>034-043>046-091700-
   NORTHWEST IOWA

CITY           SKY/WX    TMP DP  RH WIND       PRES   REMARKS
CARROLL *      SUNNY     72  55  56 SW5       30.07S
CHEROKEE *     MOSUNNY   73  61  64 W6        30.07S
DENISON *      SUNNY     72  59  64 SW5       30.06S
LE MARS *      MOSUNNY   73  61  64 VRB6      30.07S
ORANGE CITY *  SUNNY     73  59  60 W5        30.07S
SHELDON *      SUNNY     73  59  60 W7        30.05S
SPENCER        SUNNY     74  58  57 W6        30.05F
STORM LAKE *   SUNNY     72  57  60 W8        30.08R
$$

IAZ055>058-069>071-079>083-090>094-091700-
   SOUTHWEST IOWA

CITY           SKY/WX    TMP DP  RH WIND       PRES   REMARKS
ATLANTIC *     SUNNY     73  57  56 CALM      30.08R
AUDUBON *      SUNNY     75  61  60 S5        30.09S
CLARINDA *     SUNNY     73  59  60 CALM      30.10S
COUNCIL BLFS * SUNNY     75  61  60 SW6       30.08S
CRESTON *      SUNNY     72  55  56 CALM      30.09R
HARLAN  *      SUNNY     72  57  60 CALM      30.12S
RED OAK *      SUNNY     75  61  60 S6        30.09R
SHENANDOAH *   SUNNY     75  61  60 SW3       30.10R
$$

IAZ047>049-059>061-072>074-084-091700-
   CENTRAL IOWA

CITY           SKY/WX    TMP DP  RH WIND       PRES   REMARKS
ANKENY *       SUNNY     73  55  53 NW5       30.06R
CHARITON *     SUNNY     72  55  56 N8        30.07R
GRINNELL*      SUNNY     72  57  60 NW7       30.06R
KNOXVILLE *    SUNNY     72  54  53 NW9       30.05S
PELLA *        SUNNY     73  55  53 NW6       30.07R
PERRY *          N/A     73  55  53 CALM      30.06S
$$

IAZ004>006-015-016-023>025-035-036-091700-
   NORTH CENTRAL IOWA

CITY           SKY/WX    TMP DP  RH WIND       PRES   REMARKS
ALGONA *       SUNNY     73  54  49 VRB6      30.06S
CLARION *      SUNNY     72  54  53 VRB5G12   30.06R
FOREST CITY *  SUNNY     72  54  53 NW5       30.04S
IOWA FALLS *     N/A     72  52  49 NW6       30.06S
$$

IAZ007>011-017>019-026>030-037>042-050>054-066-091700-
   NORTHEAST IOWA

CITY           SKY/WX    TMP DP  RH WIND       PRES   REMARKS
CEDAR RAPIDS   MOSUNNY   72  55  55 NW8       30.03R
CHARLES CITY * SUNNY     72  55  56 NW9       30.04S
CLINTON *      MOSUNNY   72  55  56 NW10G16   30.03R
DECORAH *        N/A    N/A N/A N/A MISG        N/A
DUBUQUE        SUNNY     70  55  59 NW15G28   30.02R
MONTICELLO *   SUNNY     72  54  53 NW14      30.02R
OELWEIN *      MOSUNNY   72  61  68 NW10      30.04R
WATERLOO       SUNNY     73  53  49 NW9       30.02S
$$

IAZ064-065-067-068-078-091700-
   EAST CENTRAL IOWA

CITY           SKY/WX    TMP DP  RH WIND       PRES   REMARKS
MT. PLEASANT * SUNNY     73  54  49 N10       30.03S
MUSCATINE *    SUNNY     73  54  49 N12       30.02R
$$

IAZ062-063-075>077-085>089-095>099-091700-
   SOUTHEAST IOWA

CITY           SKY/WX    TMP DP  RH WIND       PRES   REMARKS
FAIRFIELD *    SUNNY     73  57  56 N10G17    30.04S
FORT MADISON * SUNNY     75  57  53 NW10G16   30.03S
KEOKUK *       SUNNY     75  57  53 NW13G18   30.02R
OSKALOOSA *      N/A     72  59  64 NW7       30.06R
CENTERVILLE *  SUNNY     73  55  53 NW10      30.08R
WASHINGTON *   SUNNY     73  55  53 N8        30.04R
$$

ABBREVIATIONS USED IN REMARKS
   TC - TEMPERATURES IN CELSIUS
  WCI - WIND CHILL INDEX
   HX - HEAT INDEX
  VSB - VISIBILITY
$$



USA.gov is the U.S. government's official web portal to all federal, state and local government web resources and services.